[[{"header":{"parameterUnit":"m.s-1","parameterCategory":1,"la1":30.2991,"la2":30.254,"lo1":-89.0895,"lo2":-89.0444,"dy":0.0017,"dx":0.0017,"nx":28,"ny":28,"refTime":"2024-10-03T09:00:00:Z","depth":0,"parameterNumber":2,"parameterNumberName":"U-component_of_WINDS"},"data":[0,0,0,0,0,0,0,0,0,0,0,0,0,0,0,0,0,0,0,0,0,0,0,0,0,0,0,0,0,0,0,0,0,0,0,0,0,0,0,0,0,0,0,0,0,0,0,0,0,0,0,0,0,0,0,0,0,0,0.0515,0.0515,0,0.0531,0.0531,0.0532,0.0538,0.0538,0.0538,0.0538,0.0554,0.0554,0.0554,0,0,0,0,0,0,0,0,0,0,0,0,0,0.0489,0.049,0.0515,0.0515,0.0515,0.0531,0.0531,0.0532,0.0538,0.0538,0.0538,0.0538,0.0553,0.0554,0.0555,0,0,0,0,0,0,0,0,0,0,0,0,0,0.0503,0.049,0.0515,0.052,0.0521,0.0531,0.0531,0.0532,0.0538,0.0538,0.0538,0.0537,0.0553,0.0554,0.0555,0.056,0,0,0.0557,0.0557,0,0,0,0,0,0,0,0,0.0502,0.0504,0.0519,0.052,0.0521,0.0532,0.0528,0.0541,0.0538,0.0531,0.0538,0.0537,0.0547,0.0548,0.0551,0.0561,0.0562,0.0557,0.0557,0.0558,0.0558,0,0,0,0,0,0,0,0.0501,0.0503,0.0521,0.052,0.052,0.0522,0.0524,0.0531,0.0539,0.0532,0.0532,0.0534,0.0547,0.055,0.0551,0.0562,0.0557,0.0557,0.0558,0.0558,0.0579,0.0579,0,0,0,0,0,0,0.0499,0.0502,0.0521,0.0522,0.0511,0.0523,0.0525,0.0529,0.0539,0.0541,0.0534,0.0534,0.0549,0.0551,0.0552,0.056,0.0558,0.0558,0.0559,0.0578,0.0579,0.0579,0,0,0,0,0,0,0.0499,0.0501,0.052,0.0512,0.0515,0.0523,0.0528,0.0529,0.0532,0.0541,0.0542,0.0536,0.0549,0.0551,0.0558,0.056,0.0559,0.0559,0.0578,0.0578,0.0579,0.0575,0,0,0,0,0,0,0.0498,0.0501,0.0503,0.0512,0.0515,0.0526,0.0528,0.0529,0.0534,0.0534,0.0543,0.0544,0.0549,0.0557,0.0559,0.0561,0.056,0.0578,0.0578,0.0579,0.0575,0.0575,0.0575,0,0,0,0,0,0.0497,0.0501,0.0503,0.0505,0.0518,0.0526,0.0528,0.0534,0.0534,0.0536,0.0542,0.0544,0.056,0.0558,0.056,0.0563,0.0578,0.0578,0.0579,0.0575,0.0575,0.0575,0,0,0,0,0,0,0.0491,0.0502,0.0504,0.0512,0.0518,0.0527,0.053,0.0533,0.054,0.054,0.0546,0.0548,0.0555,0.056,0.0557,0.0569,0.0569,0.057,0.0566,0.0566,0.0566,0.0565,0.056,0,0,0,0,0,0.049,0.0496,0.0506,0.0511,0.0515,0.0522,0.0526,0.053,0.0537,0.0539,0.0545,0.0552,0.0558,0.0562,0.0569,0.0576,0.0578,0.0579,0.0579,0.0579,0.0579,0.0584,0.0584,0.058,0.058,0.058,0,0,0.0489,0.0496,0.05,0.051,0.0516,0.0522,0.0524,0.053,0.0535,0.054,0.0548,0.0552,0.056,0.0568,0.0571,0.0571,0.0581,0.0579,0.0579,0.0579,0.0584,0.0584,0.0585,0.058,0.058,0.058,0,0,0.0491,0.0497,0.0502,0.0508,0.0516,0.0521,0.0523,0.0532,0.0535,0.0543,0.0547,0.0553,0.0564,0.0569,0.0574,0.0578,0.0581,0.058,0.058,0.0585,0.0585,0.0585,0.0587,0.0588,0.0581,0.0581,0.0581,0,0.0488,0.0498,0.0504,0.051,0.0515,0.0521,0.0526,0.0531,0.0541,0.0545,0.0545,0.0559,0.0565,0.0574,0.0575,0.0578,0.058,0.0579,0.0584,0.0585,0.0585,0.0587,0.0588,0.0581,0.0581,0.0581,0.0581,0,0.0495,0.0501,0.0504,0.0514,0.052,0.0525,0.0533,0.0537,0.0541,0.0546,0.0554,0.0561,0.057,0.0572,0.0575,0.0582,0.0582,0.0583,0.0583,0.0585,0.0587,0.0588,0.058,0.058,0.058,0.058,0,0,0.0492,0.0506,0.0507,0.0512,0.0522,0.0527,0.0534,0.0542,0.0546,0.0553,0.0558,0.0568,0.057,0.0575,0.0579,0.0583,0.0586,0.0584,0.0584,0.0584,0.0594,0.0593,0.0593,0.0588,0.0588,0.0589,0.0593,0,0.0494,0.0506,0.0512,0.0521,0.0527,0.0533,0.0539,0.0546,0.0551,0.0557,0.0563,0.057,0.0572,0.0575,0.0579,0.0585,0.0588,0.0585,0.0593,0.0594,0.0591,0.0594,0.0592,0.0597,0.0594,0.0594,0.0594,0,0.0499,0.0506,0.0516,0.0526,0.0529,0.0534,0.0542,0.0548,0.0556,0.056,0.0566,0.057,0.0577,0.0578,0.0588,0.0585,0.0589,0.0593,0.0593,0.0594,0.0594,0.0595,0.0598,0.0598,0.0595,0.0595,0.0595,0,0.0496,0.0508,0.0516,0.052,0.0532,0.0535,0.054,0.0548,0.0553,0.0561,0.0564,0.0572,0.0577,0.0583,0.059,0.0589,0.0599,0.06,0.0602,0.0602,0.0604,0.0604,0.0608,0.0607,0.0607,0.0607,0.0607,0,0.0498,0.0503,0.0514,0.0519,0.0526,0.0533,0.054,0.0545,0.0553,0.0559,0.0564,0.057,0.0578,0.0585,0.059,0.0598,0.06,0.0603,0.0604,0.0602,0.0602,0.0605,0.0605,0.0607,0.0607,0.0607,0.0607,0,0.0495,0.0503,0.0511,0.0522,0.0525,0.053,0.0539,0.0544,0.055,0.0558,0.056,0.0569,0.0577,0.0585,0.0595,0.0599,0.0607,0.0608,0.0604,0.0604,0.0607,0.0606,0.0612,0.0613,0.0612,0.0612,0.0612,0,0.0496,0.05,0.0512,0.0517,0.0522,0.0529,0.0534,0.0542,0.0547,0.0557,0.0561,0.057,0.0577,0.059,0.0597,0.0606,0.0608,0.0609,0.0609,0.0607,0.0608,0.0607,0.0608,0.0609,0.0609,0.0609,0.0609,0,0.0496,0.05,0.0507,0.0516,0.0522,0.0529,0.0537,0.054,0.055,0.0555,0.0564,0.057,0.0581,0.0589,0.0599,0.0604,0.0608,0.0609,0.061,0.0608,0.0605,0.0607,0.0603,0.0609,0.0609,0.0609,0.0609,0.0609,0.0495,0.05,0.0509,0.0517,0.0524,0.0531,0.0536,0.0543,0.055,0.056,0.0564,0.0573,0.0582,0.0595,0.0601,0.0608,0.0608,0.061,0.061,0.061,0.061,0.0604,0.0609,0.0609,0.061,0.061,0.061,0,0.0496,0.0502,0.051,0.052,0.0527,0.053,0.0539,0.0544,0.0552,0.056,0.0567,0.0577,0.0586,0.0595,0.0604,0.0608,0.061,0.061,0.0609,0.0611,0.0609,0.0607,0.0608,0.0608,0.0608,0.0608,0.0608,0.0608,0.0497,0.0505,0.051,0.0521,0.0528,0.0536,0.0541,0.0548,0.0554,0.0565,0.0573,0.0579,0.0587,0.0597,0.0605,0.0607,0.061,0.061,0.0613,0.0611,0.0611,0.0611,0.0609,0.0611,0.0611,0.0614,0.0614,0.0614]},{"header":{"parameterUnit":"m.s-1","parameterCategory":1,"la1":30.2991,"la2":30.254,"lo1":-89.0895,"lo2":-89.0444,"dy":0.0017,"dx":0.0017,"nx":28,"ny":28,"refTime":"2024-10-03T09:00:00:Z","depth":0,"parameterNumber":3,"parameterNumberName":"V-component_of_WINDS"},"data":[0,0,0,0,0,0,0,0,0,0,0,0,0,0,0,0,0,0,0,0,0,0,0,0,0,0,0,0,0,0,0,0,0,0,0,0,0,0,0,0,0,0,0,0,0,0,0,0,0,0,0,0,0,0,0,0,0,0,-0.3532,-0.3532,0,-0.3543,-0.3543,-0.3543,-0.3599,-0.3601,-0.3602,-0.3603,-0.3612,-0.3611,-0.361,0,0,0,0,0,0,0,0,0,0,0,0,0,-0.3557,-0.3557,-0.3532,-0.3532,-0.3532,-0.3543,-0.3543,-0.3543,-0.3599,-0.3601,-0.3602,-0.3604,-0.3612,-0.3611,-0.361,0,0,0,0,0,0,0,0,0,0,0,0,0,-0.3555,-0.3556,-0.3532,-0.3561,-0.3564,-0.3543,-0.3543,-0.3543,-0.3599,-0.3601,-0.3603,-0.3605,-0.3613,-0.3611,-0.361,-0.356,0,0,-0.3605,-0.3605,0,0,0,0,0,0,0,0,-0.3555,-0.3554,-0.3557,-0.3559,-0.3562,-0.3572,-0.3555,-0.3549,-0.3598,-0.3585,-0.3603,-0.3606,-0.3597,-0.3597,-0.3594,-0.3561,-0.3561,-0.3605,-0.3604,-0.3604,-0.3603,0,0,0,0,0,0,0,-0.3555,-0.3554,-0.3536,-0.3557,-0.356,-0.3573,-0.3575,-0.3554,-0.358,-0.3587,-0.3591,-0.3592,-0.3599,-0.3596,-0.3595,-0.3561,-0.3605,-0.3604,-0.3603,-0.3602,-0.3488,-0.3486,0,0,0,0,0,0,-0.3551,-0.3554,-0.3536,-0.3536,-0.3564,-0.3571,-0.3573,-0.3567,-0.358,-0.3584,-0.359,-0.3594,-0.3597,-0.3597,-0.3596,-0.3538,-0.3604,-0.3602,-0.3601,-0.349,-0.3487,-0.3485,0,0,0,0,0,0,-0.3552,-0.3549,-0.3535,-0.3546,-0.3545,-0.3569,-0.3561,-0.3566,-0.3563,-0.3582,-0.3587,-0.3582,-0.3599,-0.3598,-0.3569,-0.3539,-0.3601,-0.36,-0.3492,-0.3489,-0.3486,-0.3423,0,0,0,0,0,0,-0.3552,-0.3549,-0.3531,-0.3545,-0.3545,-0.3508,-0.3559,-0.3565,-0.356,-0.3566,-0.3576,-0.358,-0.36,-0.3571,-0.3567,-0.3538,-0.3599,-0.3495,-0.3491,-0.3487,-0.3428,-0.3418,-0.341,0,0,0,0,0,-0.3553,-0.3512,-0.3529,-0.3527,-0.3522,-0.3507,-0.3506,-0.3531,-0.3558,-0.3539,-0.3552,-0.358,-0.3544,-0.3567,-0.3564,-0.3534,-0.3497,-0.3492,-0.3487,-0.3432,-0.342,-0.341,0,0,0,0,0,0,-0.3492,-0.3514,-0.3534,-0.3496,-0.3499,-0.3516,-0.3493,-0.3518,-0.3512,-0.3518,-0.3548,-0.355,-0.3517,-0.3523,-0.3549,-0.3487,-0.3525,-0.3519,-0.3484,-0.3473,-0.3464,-0.3463,-0.3598,0,0,0,0,0,-0.3474,-0.346,-0.348,-0.3445,-0.3446,-0.3469,-0.3464,-0.3483,-0.3487,-0.3488,-0.3499,-0.3501,-0.349,-0.3482,-0.3473,-0.343,-0.3433,-0.3408,-0.3399,-0.3391,-0.3385,-0.3363,-0.3352,-0.3469,-0.3469,-0.3469,0,0,-0.3437,-0.3447,-0.3437,-0.3433,-0.3438,-0.3422,-0.347,-0.3451,-0.344,-0.3485,-0.3458,-0.3466,-0.3471,-0.3435,-0.3419,-0.3439,-0.3354,-0.3385,-0.3379,-0.3377,-0.3357,-0.3346,-0.3336,-0.3466,-0.3467,-0.3467,0,0,-0.3361,-0.3368,-0.334,-0.3344,-0.3351,-0.3367,-0.336,-0.3374,-0.3381,-0.3355,-0.3389,-0.3376,-0.3356,-0.3358,-0.3357,-0.3284,-0.3309,-0.328,-0.3232,-0.321,-0.3201,-0.3193,-0.3167,-0.3157,-0.3274,-0.3274,-0.3274,0,-0.3313,-0.3292,-0.3322,-0.3302,-0.3299,-0.334,-0.3312,-0.3314,-0.3317,-0.3314,-0.3336,-0.3314,-0.332,-0.3285,-0.3267,-0.3264,-0.3257,-0.3278,-0.32,-0.3192,-0.3185,-0.316,-0.315,-0.3271,-0.3271,-0.3271,-0.3272,0,-0.3234,-0.3219,-0.3195,-0.3198,-0.3193,-0.3169,-0.3194,-0.3186,-0.3206,-0.3219,-0.3193,-0.3202,-0.3196,-0.3189,-0.3208,-0.3157,-0.3169,-0.3195,-0.3233,-0.317,-0.3147,-0.3138,-0.3266,-0.3267,-0.3268,-0.3269,0,0,-0.3118,-0.3139,-0.313,-0.3132,-0.3144,-0.3132,-0.311,-0.3105,-0.3097,-0.3098,-0.308,-0.3063,-0.3088,-0.3087,-0.3106,-0.3087,-0.3028,-0.3116,-0.3117,-0.3099,-0.2972,-0.2952,-0.294,-0.3046,-0.3044,-0.3043,-0.2972,0,-0.3045,-0.3009,-0.3035,-0.2994,-0.2981,-0.3021,-0.3001,-0.3006,-0.3018,-0.3008,-0.3022,-0.301,-0.3044,-0.3043,-0.3026,-0.3039,-0.3003,-0.3045,-0.3028,-0.3027,-0.3025,-0.2929,-0.2907,-0.2839,-0.2963,-0.2962,-0.2961,0,-0.2955,-0.2954,-0.2911,-0.2927,-0.2922,-0.2904,-0.2902,-0.2892,-0.2899,-0.2909,-0.2908,-0.2933,-0.2912,-0.2951,-0.2922,-0.295,-0.2945,-0.295,-0.2948,-0.2947,-0.2989,-0.2924,-0.2818,-0.2808,-0.2947,-0.2948,-0.2949,0,-0.2874,-0.2862,-0.2835,-0.2836,-0.2853,-0.284,-0.2846,-0.2855,-0.285,-0.2849,-0.2846,-0.2842,-0.2839,-0.2835,-0.2858,-0.2884,-0.2826,-0.2866,-0.2833,-0.2833,-0.2818,-0.2818,-0.2709,-0.2816,-0.2816,-0.2817,-0.2817,0,-0.279,-0.2762,-0.28,-0.2783,-0.2753,-0.2784,-0.2754,-0.2764,-0.2772,-0.2758,-0.2792,-0.2778,-0.281,-0.2799,-0.2817,-0.279,-0.2789,-0.2796,-0.2801,-0.2793,-0.2792,-0.2789,-0.2794,-0.2814,-0.2815,-0.2815,-0.2815,0,-0.2694,-0.2718,-0.2691,-0.2711,-0.2715,-0.2692,-0.2708,-0.2693,-0.2709,-0.2691,-0.2688,-0.2712,-0.2701,-0.2725,-0.2716,-0.2729,-0.2691,-0.2704,-0.2689,-0.2692,-0.2658,-0.266,-0.2542,-0.2528,-0.2644,-0.2643,-0.2642,0,-0.2638,-0.2618,-0.2636,-0.2629,-0.2634,-0.2623,-0.2619,-0.2649,-0.2644,-0.265,-0.2635,-0.2627,-0.2622,-0.2603,-0.2619,-0.2613,-0.2626,-0.2585,-0.2625,-0.2617,-0.2625,-0.2625,-0.2623,-0.2576,-0.2575,-0.2574,-0.2573,0,-0.2536,-0.2549,-0.2543,-0.2541,-0.2536,-0.2536,-0.2538,-0.253,-0.2563,-0.2555,-0.2545,-0.2541,-0.2534,-0.2525,-0.2524,-0.253,-0.2556,-0.256,-0.2552,-0.2543,-0.2535,-0.2538,-0.2665,-0.2562,-0.2563,-0.2564,-0.2565,-0.2565,-0.2458,-0.2443,-0.2453,-0.2445,-0.245,-0.2451,-0.2439,-0.2454,-0.2446,-0.2443,-0.2461,-0.2447,-0.2455,-0.2455,-0.2459,-0.2448,-0.2466,-0.2454,-0.2451,-0.2448,-0.2442,-0.2537,-0.2448,-0.2448,-0.2448,-0.2449,-0.2449,0,-0.2358,-0.2367,-0.2359,-0.2362,-0.2356,-0.2383,-0.2387,-0.238,-0.2367,-0.2372,-0.2368,-0.2356,-0.2349,-0.2365,-0.236,-0.2348,-0.236,-0.2346,-0.2346,-0.2347,-0.2426,-0.2433,-0.2336,-0.2336,-0.2336,-0.2336,-0.2336,-0.2336,-0.2304,-0.228,-0.2294,-0.2272,-0.2281,-0.2269,-0.2268,-0.227,-0.2275,-0.2261,-0.2255,-0.2266,-0.2276,-0.2272,-0.2267,-0.2272,-0.2268,-0.2249,-0.2258,-0.2331,-0.2342,-0.2352,-0.2359,-0.2248,-0.2248,-0.218,-0.218,-0.2179]}]]